カタログに戻る

IRIDE-MS2-HEO-11

運用中科学SSO
NORAD 68983·PAYLOAD·🇰🇷 South Korea

打ち上げ May 3, 2026 から Vandenberg Space Force Base

Loading…

次のパス (今後24時間)

TLE

最新Source: Space-Track

元期: Sep 14, 2026, 12:44 UTC

1 68983U 26100D   26257.53097625  .00001183  00000-0  12511-3 0  9998
2 68983  97.7251 153.1915 0002777 180.8443 179.2772 14.91032093 20013

AllMySatでIRIDE-MS2-HEO-11をリアルタイム追跡

Download on the App Store